Regional Weather Roundup
Issued by NWS

Home | Current Version | Previous Version | Graphics & Text | Print | Product List | Glossary On
Versions: 1 2 3 4 5 6 7 8 9 10 11 12 13 14 15 16 17 18 19 20 21 22 23 24 25 26 27 28 29 30 31 32 33 34 35 36 37 38 39 40 41 42 43 44 45 46 47 48 49 50
000
ASUS43 KMKX 210920
RWRWI

WISCONSIN REGIONAL WEATHER ROUNDUP
NATIONAL WEATHER SERVICE MILWAUKEE/SULLIVAN WI
300 AM CST WED FEB 21 2018

NOTE: "FAIR" INDICATES FEW OR NO CLOUDS BELOW 12,000 FEET WITH NO
SIGNIFICANT WEATHER AND/OR OBSTRUCTIONS TO VISIBILITY.

WIZ001-002-006>008-014>016-023>028-211000-
NORTHWEST WISCONSIN

CITY           SKY/WX    TMP DP  RH WIND       PRES   REMARKS
SUPERIOR ARPT  FAIR       1  -3  82 SW7       30.39R WCI -12
ASHLAND        MOCLDY     4  -1  80 SW9       30.36R WCI -10
HAYWARD        FAIR       2  -2  83 SW5       30.35R WCI  -8
SIREN          FAIR       1  -3  84 SW5       30.40R WCI  -9
CUMBERLAND     FAIR       3  -2  78 W5        30.37R WCI  -6
RICE LAKE      FAIR       3  -1  81 CALM      30.40R
CHETEK         FAIR       5   0  79 W5        30.39R WCI  -4
LADYSMITH      FAIR       7   2  83 W6        30.37R WCI  -4
EAU CLAIRE     FAIR       7   0  73 W6        30.41R WCI  -3
MENOMONIE      FAIR       7   0  75 W5        30.43R WCI  -2
NEW RICHMOND   FAIR       1  -4  80 CALM      30.42R
OSCEOLA        FAIR       2  -2  81 W6        30.46R WCI  -9
$$

WIZ003>005-009-010-017-018-211000-
NORTH CENTRAL WISCONSIN

CITY           SKY/WX    TMP DP  RH WIND       PRES   REMARKS
MANITOWISH WTR FLURRIES   6   4  93 W5        30.25R WCI  -3
ARBOR VITAE    FAIR      11   8  85 W3        30.25R
WOODRUFF       FAIR      11   8  85 W3        30.25R
RHINELANDER    FAIR      10   7  87 W8        30.26R WCI  -2
EAGLE RIVER    FAIR       9   5  82 W7        30.24R WCI  -2
LAND O LAKES   FLURRIES  11   7  85 W7        30.24R WCI   0
PHILLIPS       FAIR       6   3  86 CALM      30.29R
TOMAHAWK       FAIR       9   5  85 W3        30.29R
MEDFORD        FAIR       9   5  84 W6        30.29R WCI  -1
MERRILL        FAIR      12   7  81 NW3       30.31R
$$

WIZ029-030-035-036-043>047-211000-
CENTRAL WISCONSIN

CITY           SKY/WX    TMP DP  RH WIND       PRES   REMARKS
WAUSAU         FAIR      13   8  81 NW7       30.29R WCI   3
MOSINEE        FAIR      14  10  85 W10       30.31S WCI   1
MARSHFIELD     FAIR      12   7  80 W12       30.31R WCI  -2
STEVENS POINT  FAIR      13   9  85 W5        30.33R WCI   5
WAUPACA        FAIR      21  13  71 W9        30.33R WCI  10
WAUTOMA        FAIR      18  12  77 NW10      30.35R WCI   6
WISC RAPIDS    FAIR      15   9  76 NW9       30.35R WCI   3
CAMP DOUGLAS   FAIR      16  11  81 NW9       30.37R WCI   4
$$

WIZ011>013-019>022-031-037>040-048>050-211000-
NORTHEAST WISCONSIN

CITY           SKY/WX    TMP DP  RH WIND       PRES   REMARKS
ANTIGO         FAIR      12   9  87 W6        30.26R WCI   2
SHAWANO        FAIR      20  13  75 W7        30.31R WCI  11
OCONTO         FAIR      21  13  72 NW7G20    30.30R WCI  12
STURGEON BAY   CLOUDY    24  19  81 NW13G22   30.27R WCI  12
GREEN BAY      FAIR      23  14  68 NW13G23   30.30R WCI  11
MANITOWOC      CLOUDY    25  19  78 NW15      30.28R WCI  13
APPLETON       FAIR      21  12  68 NW9       30.29R WCI  11
CLINTONVILLE   FAIR      19  11  70 NW8       30.32R WCI   9
OSHKOSH        FAIR      21  13  71 NW12      30.31R WCI   9
$$

WIZ032>034-041-042-053>061-211000-
SOUTHWEST WISCONSIN

CITY           SKY/WX    TMP DP  RH WIND       PRES   REMARKS
LA CROSSE      FAIR      14   7  73 NW13      30.44R WCI   0
SPARTA         FAIR      15  11  85 W6        30.41R WCI   6
VIROQUA        MOCLDY    14  12  92 NW8       30.37R WCI   2
BOSCOBEL       FAIR      19  11  70 NW8G17    30.42R WCI   9
PRAIRIE DU CHI FAIR      17   9  71 NW12      30.44R WCI   4
PLATTEVILLE    FAIR      20  16  84 NW12      30.37R WCI   8
$$

WIZ056-057-062-063-064-067-068-211000-
SOUTH CENTRAL WISCONSIN

CITY           SKY/WX    TMP DP  RH WIND       PRES   REMARKS
REEDSBURG      CLOUDY    18  13  79 NW8       30.38R WCI   8
BARABOO/DELLS  CLOUDY    20  13  75 NW5       30.35R WCI  14
LONE ROCK      CLOUDY    21  15  78 NW9       30.39R WCI  11
MINERAL POINT  MOCLDY    21  19  93 NW9       30.34R WCI  11
MADISON        FAIR      21  13  71 N14G20    30.34R WCI   8
MIDDLETON      MOCLDY    24  16  73 N14       30.35R WCI  11
WATERTOWN      CLOUDY    22  18  83 NW14      30.31R WCI  10
MONROE         CLOUDY    23  19  86 NW10      30.31R WCI  12
JANESVILLE     CLOUDY    28  23  80 N10       30.32R WCI  19
$$

WIZ051-052-058>065-066-070>072-211000-
SOUTHEAST WISCONSIN

CITY           SKY/WX    TMP DP  RH WIND       PRES   REMARKS
MILWAUKEE      CLOUDY    28  19  69 N14       30.28R WCI  17
WAUKESHA       CLOUDY    23  19  86 NW14      30.30R WCI  11
MILWAUKEE/TIMM CLOUDY    27  19  74 NW15      30.30R WCI  15
RACINE         MOCLDY    28  22  78 NW14G23   30.30R WCI  17
BURLINGTON     CLOUDY    27  21  79 NW12      30.30R WCI  16
KENOSHA        MOCLDY    29  23  78 NW14G24   30.28R WCI  18
FOND DU LAC    FAIR      22  13  68 NW13      30.31R WCI  10
SHEBOYGAN      CLOUDY    24  18  77 NW17G25   30.28R WCI  11
WEST BEND      CLOUDY    23  18  80 NW12G23   30.29R WCI  12
JUNEAU         CLOUDY    21  14  73 NW10G17   30.32R WCI  10
$$

LSZ147-162-211000-
LAKE SUPERIOR

STATION/POSITION TIME  TEMP    WIND        PRES    WAVE
                       AIR SEA DIR/SP/G            HT/PER
                 (UTC) (F)     (DEG/KT/KT) (MB)    (FT/S)
DEVILS ISLAND    0900   14     280/ 14/ 16 1028.0R
SAXON HARBOR     0830   11     230/  6/ 11 1027.1R
$$

LMZ867-665-643>646-211000-
LAKE MICHIGAN

STATION/POSITION TIME  TEMP    WIND        PRES    WAVE
                       AIR SEA DIR/SP/G            HT/PER
                 (UTC) (F)     (DEG/KT/KT) (MB)    (FT/S)
NORTHPORT PIER   0840   26                 1024.4R
KEWAUNEE LAKESHO 0854   26     310/  9/ 15 1024.3R
SHEBOYGAN LAKESH 0900   25     300/ 16/ 22 1026.4R
PORT WASHINGTON  0830   26     320/  6/ 16 1026.4R
MILWAUKEE LAKESH 0900   27     310/  9/ 11   N/A
KENOSHA   LAKESH 0900   29     320/ 12/ 20 1025.1
$$

TC  - TEMPERATURE IN CELSIUS
VSB - VISIBILITY IN STATUTE MILES
WCI - WIND CHILL INDEX
HX  - HEAT INDEX





USA.gov is the U.S. government's official web portal to all federal, state and local government web resources and services.